Starlink 31957

operational
NORAD ID: 59926 Int'l Des: 2024-106 Owner: SPXS Country: US Constellation: starlink
LEOCIRCULAR

Starlink 31957について

説明を読み込み中...

リアルタイム位置

3D地球を読み込み中...

次回通過

高度履歴

Altitude vs Time

uPlot chart will show altitude changes over time

軌道要素

1 59926U 24106E 25257.31956598 .00001337 00000-0 58085-4 0 9995
2 59926 43.0019 248.1938 0001120 273.6883 86.3841 15.27577558 73604
Epoch: Sep 14, 2025 • Age: 28 hours

現在のステータス

高度 494.1 km
速度 7.62 km/s
衛星直下点 -39.22°S, 43.91°W
打ち上げ日 Jun 1, 2024
運用期間 1.2 years
タイプ internet

技術仕様

分類 Payload
質量 730.00 kg
乾燥質量 700.00 kg
総質量 730.00 kg
長さ 0.30 m
直径 4.10 m
スパン 29.00 m
形状 Box + pan
製造者 SPXS
バスタイプ Starlink V2M
フェーズステータス In Orbit
所有者/国 SPXS/US

大規模コンステレーション

Loading constellations...